Regional Weather Roundup
Issued by NWS

Home | Current Version | Previous Version | Text Only | Print | Product List | Glossary Off
Versions: 1 2 3 4 5 6 7 8 9 10 11 12 13 14 15 16 17 18 19 20 21 22 23 24 25 26 27 28 29 30 31 32 33 34 35 36 37 38 39 40 41 42 43 44 45 46 47 48 49 50

000
ASUS43 KDTX 250910
RWRMI
MICHIGAN HOURLY REGIONAL WEATHER ROUNDUP
NATIONAL WEATHER SERVICE DETROIT/PONTIAC MI
400 AM EST THU DEC 25 2014

NOTE: "FAIR" INDICATES FEW OR NO CLOUDS BELOW 12,000 FEET WITH NO
SIGNIFICANT WEATHER AND/OR OBSTRUCTION TO VISIBILITY.

MIZ047>049-052>055-059>063-066>070-074>076-081>083-251000-
SOUTHEAST LOWER MICHIGAN

CITY           SKY/WX    TMP DP  RH WIND       PRES   REMARKS
ADRIAN         CLOUDY    36  34  92 W14G23    29.66R
ALMA           CLOUDY    35  33  94 W14G21    29.58R
ANN ARBOR      CLOUDY    37  35  92 W13       29.62R
BAD AXE        CLOUDY    34  34 100 W17G24    29.50R
DETROIT CITY   CLOUDY    40  34  79 W15G22    29.61R
DETROIT        CLOUDY    37  36  93 NW26G44   29.63R
FLINT          CLOUDY    38  34  85 W14       29.58R
GROSSE ILE     CLOUDY    39  36  87 SW14      29.62R
HILLSDALE      LGT RAIN  36  36 100 W12G17    29.64R
HOWELL         CLOUDY    35  34  98 SW14G22   29.59R

CITY           SKY/WX    TMP DP  RH WIND       PRES   REMARKS
JACKSON        CLOUDY    36  34  92 SW12G17   29.62R
LAMBERTVILLE   CLOUDY    37  34  87 SW13      29.67R
LANSING        CLOUDY    36  33  89 W13       29.61R
LAPEER         NOT AVBL
MASON          CLOUDY    34  32  92 W9        29.61R
MONROE         CLOUDY    37  36  93 SW16G22   29.63R
MT. CLEMENS    CLOUDY    39  38  99 SW15G22   29.57R
PONTIAC        CLOUDY    36  34  92 W16G25    29.57R
PORT HOPE        N/A     35  32  88 W13G23    29.45R
PORT HURON     CLOUDY    37  34  87 W10       29.57R
TRI CITIES     CLOUDY    36  32  85 W16       29.55R
YPSILANTI      CLOUDY    41  34  76 SW14      29.63R
$$
MIZ043>046-050>051-056>058-064>065-071>073-077>080-251000-
SOUTHWEST LOWER MICHIGAN

CITY           SKY/WX    TMP DP  RH WIND       PRES   REMARKS
BATTLE CREEK   CLOUDY    37  33  85 W13G22    29.65R
BENTON HARBOR  CLOUDY    37  32  82 W23G29    29.71R
BIG RAPIDS     CLOUDY    34  33  96 W9G17     29.57R
COLDWATER      CLOUDY    35  34  95 W12G18    29.66R
HOLLAND        CLOUDY    39  31  72 W10G25    29.66R
GRAND RAPIDS   CLOUDY    37  35  92 W17       29.62R
KALAMAZOO      CLOUDY    37  33  85 W15G23    29.67R
MARSHALL       CLOUDY    34  33  96 SW13      29.63R
MUSKEGON       CLOUDY    38  31  76 W14G23    29.64R
$$
MIZ016>042-251000-
NORTHERN LOWER MICHIGAN

CITY           SKY/WX    TMP DP  RH WIND       PRES   REMARKS
ALPENA         CLOUDY    34  32  92 W9G21     29.41R
BEAVER ISLAND  CLOUDY    33  31  92 W13G21    29.47R
BELLAIRE       CLOUDY    35  31  87 W8G21     29.50R
CADILLAC       LGT SNOW  32  30  93 W16       29.51R
CHARLEVOIX     CLOUDY    35  32  89 W24G31    29.51R
FRANKFORT      CLOUDY    35  31  85 NW17G25   29.56R
GAYLORD        LGT SNOW  31  30  96 W14G21    29.44R FOG
GRAYLING       LGT SNOW  33  33 100 W9G18     29.48R
HARBOR SPRINGS CLOUDY    34  31  89 W13G21    29.46R
HOUGHTON LAKE  LGT SNOW  32  31  96 W12       29.50R FOG
MANISTEE       CLOUDY    36  28  75 W18G25    29.58R
OSCODA         CLOUDY    35  33  94 W13       29.44R
PELLSTON       CLOUDY    34  30  85 W17G24    29.45R
TRAVERSE CITY  CLOUDY    35  31  85 W14       29.52R
$$
MIZ007>008-015-251000-
EASTERN UPPER MICHIGAN

CITY           SKY/WX    TMP DP  RH WIND       PRES   REMARKS
KINROSS        CLOUDY    34  34 100 W22       29.37R
MACKINAC ISLAN CLOUDY    33  33 100 W18G26    29.41R
NEWBERRY       CLOUDY    32  31  96 W13       29.41R
S. S. MARIE    LGT SNOW  33  31  92 W15G24    29.36R FOG
$$
MIZ004>006-011>014-085-251000-
CENTRAL UPPER MICHIGAN

CITY           SKY/WX    TMP DP  RH WIND       PRES   REMARKS
MANISTIQUE     CLOUDY    32  32  98 W8        29.47R
ESCANABA       PTCLDY    32  27  80 W10       29.51R
MENOMINEE      CLOUDY    34  28  80 W7        29.56R
SAWYER-GWINN   CLOUDY    31  29  90 W6        29.47S
$$
MIZ001>003-009>011-084-251000-
WESTERN UPPER MICHIGAN

CITY           SKY/WX    TMP DP  RH WIND       PRES   REMARKS
IRON MOUNTAIN  CLOUDY    32  28  85 W8        29.50S
HOUGHTON       LGT SNOW  32  30  92 W8        29.46R FOG
COPPER HARBOR    N/A     35  28  75 N15       29.46R
IRONWOOD       CLOUDY    30  28  93 SW14      29.51R
$$

ABBREVIATIONS USED IN REMARKS
   TC - TEMPERATURE IN CELSIUS
  WCI - WIND CHILL INDEX
   HX - HEAT INDEX
  VSB - VISIBILITY




USA.gov is the U.S. government's official web portal to all federal, state and local government web resources and services.